Regional Weather Roundup
Issued by NWS

Current Version | Previous Version | Text Only | Print | Product List | Glossary On
Versions: 1 2 3 4 5 6 7 8 9 10 11 12 13 14 15 16 17 18 19 20 21 22 23 24 25 26 27 28 29 30 31 32 33 34 35 36 37 38 39 40 41 42 43 44 45 46 47 48 49 50
000
ASUS43 KFSD 192010
RWRSD

WEATHER ROUNDUP FOR SOUTH DAKOTA
NATIONAL WEATHER SERVICE SIOUX FALLS SD
300 PM CDT SAT APR 19 2014

NOTE: "FAIR" INDICATES FEW OR NO CLOUDS BELOW 12,000 FEET WITH NO
SIGNIFICANT WEATHER AND/OR OBSTRUCTIONS TO VISIBILITY.


SDZ001>005-009-010-012>017-192100-
NORTHWEST AND NORTH CENTRAL SOUTH DAKOTA

CITY           SKY/WX    TMP DP  RH WIND       PRES   REMARKS
BUFFALO          N/A     62  22  21 W18       29.93S
FAITH            N/A     64  23  21 NW15G22   29.99R
MOBRIDGE       SUNNY     66  26  22 NW14      29.93S
$$

SDZ012>016-024>037-041>051-057-063-072>074-192100-
SOUTHWEST AND SOUTH CENTRAL SOUTH DAKOTA

CITY           SKY/WX    TMP DP  RH WIND       PRES   REMARKS
RAPID CTY ARPT MOSUNNY   61  23  23 SE12      30.02F
PIERRE         MOSUNNY   67  22  18 SW8G18    29.99F
CUSTER         MOSUNNY   55  32  41 SW9G21    30.04S
ELLSWORTH AFB  MOSUNNY   62  23  22 SE10      30.02F
PHILIP         MOSUNNY   66  22  18 VRB5      30.02S
PINE RIDGE     PTSUNNY   61  25  25 VRB5      30.05S
SPEARFISH      FAIR      59  23  25 SE7       30.02R
WINNER         FAIR      67  20  16 NE8       30.03S
$$

SDZ004>011-016>023-039-040-192100-
NORTHEAST SOUTH DAKOTA

CITY           SKY/WX    TMP DP  RH WIND       PRES   REMARKS
ABERDEEN       MOSUNNY   68  24  19 W14       29.96S
WATERTOWN      PTSUNNY   64  27  24 W14G22    29.99S
SISSETON         N/A     68  27  21 W15       29.94R
$$

SDZ017-020-022-023-036>040-048>070-192100-
SOUTHEAST SOUTH DAKOTA

CITY           SKY/WX    TMP DP  RH WIND       PRES   REMARKS
SIOUX FALLS    CLOUDY    67  42  40 N8        29.99R
HURON          PTSUNNY   68  24  19 W8        29.99F
CHAMBERLAIN      N/A     67  24  19 VRB3      30.02F
MITCHELL       PTSUNNY   68  31  25 N10       30.00S
YANKTON        PTSUNNY   70  43  37 N10       30.00R
$$

ABBREVIATIONS USED IN REMARKS
   TC - TEMPERATURE IN CELSIUS
  WCI - WIND CHILL INDEX
   HX - HEAT INDEX
  VSB - VISIBILITY




USA.gov is the U.S. government's official web portal to all federal, state and local government web resources and services.